Wind_Speed
1 1 1 0 1 1 1 1 1 1 0 0 1 2 2 1 2 1 2 2 2 2 2 3 3 3 3 3 3 3 3 3 3 3 3 3 4 4 5 5 5 6 6
2 2 2 1 2 1 1 1 2 2 1 1 1 2 3 2 2 2 3 3 3 3 3 3 3 3 3 4 4 4 4 4 4 4 4 4 5 5 5 6 6 6 7
2 2 2 2 2 1 1 1 1 1 1 2 2 3 3 3 3 3 3 3 3 3 3 3 3 3 4 4 4 4 4 4 4 5 5 5 5 6 6 6 6 6 7
1 2 2 1 2 1 1 0 1 2 3 3 3 4 4 3 3 3 4 4 4 4 4 4 4 4 4 4 5 4 4 4 5 5 5 6 6 6 7 7 7 7 8
1 1 1 2 1 1 0 1 2 3 4 4 4 4 4 4 4 5 5 5 5 5 5 5 5 5 4 5 5 5 5 5 5 5 6 6 6 6 6 7 7 8 8
0 0 1 2 2 2 2 2 3 4 4 5 5 5 5 5 6 6 6 6 6 6 6 6 6 5 5 5 6 6 6 6 6 6 6 6 6 6 6 7 7 8 8
0 1 2 2 3 3 3 4 4 5 5 5 5 5 5 5 6 6 6 6 6 7 7 7 7 7 6 6 6 7 7 7 7 7 6 6 7 7 7 8 8 8 8
1 2 2 3 3 3 4 5 4 5 5 4 5 5 5 5 6 7 6 6 7 8 8 8 8 8 7 8 8 8 8 8 8 8 8 8 8 8 9 9 9 9 9
2 2 2 3 4 4 4 4 4 5 5 5 5 5 5 5 6 7 7 7 8 8 8 9 9 8 8 8 9 9 9 9 9 9 10 10 10 10 10 10 11 11 11
4 4 4 5 5 5 5 5 5 5 6 6 6 7 7 7 7 7 8 8 8 8 8 9 9 9 9 9 9 10 10 10 10 11 11 11 12 12 12 12 12 13 13
5 5 6 7 7 6 6 6 7 7 7 7 8 8 8 8 8 8 9 9 9 9 9 10 10 11 11 11 11 11 11 11 11 11 12 12 12 13 13 13 13 14 14
6 6 7 8 9 8 7 7 8 9 8 9 9 9 10 10 11 11 11 11 11 11 11 12 12 12 12 12 12 12 12 12 12 13 13 13 13 13 14 14 14 15 15
7 8 8 9 9 9 9 9 10 10 10 11 11 11 11 12 13 13 13 13 13 13 14 14 15 14 14 14 14 13 13 13 13 14 14 14 15 15 16 16 17 17 17
9 10 11 11 11 11 11 12 12 12 12 12 13 13 13 14 15 15 14 14 14 15 16 16 16 16 16 16 16 16 15 15 15 15 16 16 15 16 16 17 18 18 18
11 12 12 12 13 12 13 14 15 15 14 14 14 15 16 17 17 17 16 15 16 16 16 17 18 19 18 18 18 18 17 18 17 17 17 17 17 17 18 18 19 19 20
14 14 14 14 14 15 16 15 16 16 16 16 17 18 19 19 19 19 18 18 18 17 17 17 18 19 20 20 20 20 19 19 19 18 18 18 19 19 19 20 20 21 21
16 17 16 16 17 18 18 18 18 17 18 19 19 20 20 20 20 20 20 20 19 18 18 18 18 19 21 21 22 21 21 21 21 20 21 22 22 22 22 22 23 23 23
19 20 19 19 19 20 20 21 21 21 21 21 22 22 22 22 22 22 21 21 21 20 19 19 20 20 21 22 22 23 23 23 23 24 24 24 24 25 25 25 25 25 25
22 22 22 22 22 22 23 23 23 23 23 23 24 24 23 23 23 23 22 22 22 22 21 22 22 21 22 22 23 24 24 24 25 25 25 26 26 26 27 27 26 27 27
23 24 24 25 25 25 25 25 26 25 26 26 26 26 25 25 24 24 24 24 24 24 23 23 24 24 24 24 24 24 25 25 26 26 25 26 27 27 28 27 28 28 29
26 27 27 27 27 27 27 27 27 27 28 29 28 28 28 27 26 25 25 25 25 25 25 25 25 25 25 25 25 25 26 26 26 26 27 28 28 29 29 29 29 29 29
29 29 29 29 30 30 30 29 29 29 29 29 29 29 28 28 27 27 26 26 26 26 26 27 27 27 27 27 27 27 27 27 27 28 28 28 29 29 29 30 31 31 30
31 31 32 32 32 32 31 31 31 30 30 29 29 29 29 28 28 29 29 28 28 29 29 29 29 29 29 29 29 29 29 29 29 29 30 30 30 30 31 31 31 30 30
32 33 33 33 32 32 32 32 32 31 30 29 29 29 29 28 29 29 29 29 29 29 29 30 31 31 30 31 31 31 31 30 31 31 31 31 31 31 31 31 31 31 31
33 33 33 33 34 34 34 33 33 32 32 31 30 30 30 30 31 31 30 30 30 30 30 31 31 32 32 32 32 32 32 32 32 32 32 32 32 32 32 32 31 31 31
35 35 35 34 34 35 34 34 34 33 33 32 32 32 31 32 32 32 31 31 31 31 32 32 32 32 32 33 32 32 32 32 32 33 33 33 32 32 31 31 31 31 30
Wind_Direction
59 65 49 53 144 149 163 164 219 220 204 254 317 316 297 308 313 276 271 264 265 262 268 280 289 292 303 309 311 321 325 310 314 309 309 296 287 287 294 299 297 292 296
82 73 61 111 139 148 185 203 204 218 249 278 318 322 318 300 283 272 274 273 276 277 280 291 291 283 290 301 310 315 315 309 311 312 310 312 300 290 294 296 294 288 290
119 108 86 104 104 110 137 153 181 189 265 296 304 310 312 304 293 289 288 286 281 277 279 287 297 289 285 290 297 309 313 309 306 306 307 306 302 303 297 298 297 295 291
123 85 93 85 84 93 112 80 317 298 296 301 299 301 310 310 292 281 276 276 278 281 285 289 289 291 288 286 293 298 310 309 308 308 306 305 302 302 304 300 297 296 295
132 99 68 42 30 320 275 322 317 308 305 300 297 297 297 297 293 276 271 277 277 276 283 293 296 295 289 288 286 288 299 304 303 305 306 306 306 304 306 303 299 299 299
310 36 9 352 352 317 308 327 319 309 311 303 297 295 294 290 286 278 274 273 276 279 281 289 288 292 289 283 281 284 287 293 293 297 302 305 304 303 307 309 308 305 303
353 359 354 345 345 341 338 339 332 322 315 311 309 300 294 293 289 282 274 276 277 279 280 282 283 284 286 284 282 284 285 290 291 289 292 296 296 298 300 306 310 309 308
311 323 336 322 325 327 328 331 330 324 318 318 320 313 305 305 296 291 288 286 286 282 278 277 276 277 280 285 285 284 285 287 285 284 285 289 290 292 294 298 300 301 304
281 287 301 312 312 316 320 319 320 319 320 322 321 318 308 299 299 296 291 289 286 286 284 280 278 274 274 278 280 282 283 284 282 283 283 284 286 287 290 294 293 295 298
273 279 288 300 310 309 310 313 315 313 316 314 313 314 310 305 299 299 295 291 288 288 288 286 283 279 278 277 279 280 279 277 279 279 281 283 285 286 287 290 292 293 295
279 276 285 290 296 298 300 299 300 302 303 304 305 308 302 300 298 294 296 293 289 286 286 288 288 284 282 281 280 281 280 279 279 280 282 283 284 285 286 288 290 292 294
285 281 283 286 288 289 289 293 294 294 297 299 300 301 300 299 298 294 292 290 288 286 284 280 281 282 283 285 283 282 282 283 282 283 284 282 283 286 286 286 287 289 291
290 288 287 291 290 287 283 287 291 288 292 293 293 295 294 296 295 292 288 286 287 286 286 283 282 283 282 281 282 282 282 281 284 286 284 283 284 285 285 284 284 285 288
285 285 286 287 290 289 286 285 288 287 289 290 288 290 292 294 294 293 288 286 286 286 284 282 281 280 280 277 278 280 281 280 279 281 281 284 285 287 287 286 284 285 287
283 283 285 286 286 285 286 286 284 282 285 288 288 289 290 291 292 293 290 288 287 284 283 283 281 278 278 278 277 278 278 279 279 277 280 282 284 288 290 289 288 287 287
282 282 281 283 284 284 283 285 285 283 284 285 287 288 288 287 288 289 289 287 285 284 280 279 281 279 278 278 279 278 277 277 279 276 280 282 282 284 288 289 290 290 289
279 279 280 281 281 282 282 282 284 282 282 282 284 287 287 287 287 287 286 285 283 282 282 279 280 280 277 277 279 277 278 277 278 275 281 282 283 285 287 288 288 289 288
278 277 277 278 278 278 279 280 281 281 280 281 284 285 285 286 285 285 285 283 282 282 281 281 281 281 281 279 280 278 278 276 277 276 278 281 282 284 286 287 287 288 288
278 276 276 276 276 277 278 279 280 280 279 280 282 284 286 286 284 283 283 282 280 280 280 280 281 281 283 282 281 280 279 279 277 277 277 279 281 283 284 286 287 288 289
278 276 275 275 277 277 278 278 278 279 279 279 279 280 281 283 282 282 282 280 278 278 280 280 280 281 282 283 282 281 281 281 279 277 277 278 279 283 285 286 287 288 289
277 276 274 274 274 275 274 275 277 279 279 278 278 279 279 280 280 279 278 278 277 277 278 279 280 281 282 282 282 282 282 282 279 278 279 280 281 284 285 287 288 288 288
277 276 274 273 273 273 273 274 276 278 279 278 277 277 277 276 276 277 278 277 277 277 277 278 279 279 280 281 282 282 282 281 279 278 279 282 283 283 284 286 288 288 287
276 275 274 274 274 274 273 273 275 277 279 279 277 275 275 276 276 277 278 278 279 278 277 278 278 279 279 279 280 281 281 280 279 278 279 281 282 282 284 286 287 288 288
274 274 274 274 274 273 273 274 274 276 277 277 277 277 275 274 276 277 277 277 278 278 278 279 278 278 278 279 280 280 280 279 280 280 281 281 281 281 282 283 284 286 287
275 275 274 273 274 274 275 275 275 276 276 276 276 276 274 274 274 274 275 276 277 278 278 279 279 278 277 277 278 279 279 278 277 278 280 280 280 280 281 283 284 286 286
276 275 275 275 276 276 275 276 277 277 276 275 275 276 276 276 275 274 275 276 277 278 280 279 279 278 277 277 278 279 278 278 277 278 278 279 280 281 281 283 284 284 283
Height
5915 5914 5914 5913 5913 5913 5913 5912 5912 5912 5912 5912 5912 5911 5910 5910 5909 5909 5908 5908 5907 5906 5906 5906 5905 5904 5904 5903 5903 5902 5901 5901 5900 5899 5898 5898 5897 5897 5896 5895 5894 5893 5892
5915 5915 5914 5914 5913 5913 5913 5912 5912 5912 5912 5912 5911 5910 5910 5909 5909 5908 5908 5907 5907 5906 5906 5905 5904 5904 5903 5903 5902 5901 5901 5900 5899 5898 5897 5897 5896 5895 5894 5894 5893 5892 5891
5915 5915 5915 5914 5914 5913 5913 5912 5912 5912 5912 5912 5911 5910 5909 5909 5908 5908 5907 5907 5906 5906 5905 5904 5904 5903 5902 5902 5901 5900 5900 5899 5898 5897 5896 5896 5895 5894 5893 5892 5891 5890 5890
5915 5915 5915 5915 5914 5913 5913 5913 5912 5912 5911 5911 5910 5910 5909 5908 5908 5907 5906 5906 5905 5905 5904 5903 5902 5902 5901 5901 5900 5899 5899 5898 5897 5896 5895 5894 5893 5893 5892 5891 5890 5889 5888
5914 5915 5915 5915 5914 5913 5913 5912 5912 5911 5910 5910 5909 5909 5908 5907 5907 5906 5905 5905 5904 5903 5903 5902 5901 5901 5900 5899 5899 5898 5898 5897 5896 5895 5894 5893 5892 5891 5891 5890 5889 5888 5887
5915 5915 5915 5915 5914 5913 5912 5912 5911 5910 5909 5908 5908 5907 5907 5906 5905 5905 5904 5903 5903 5902 5902 5901 5900 5899 5899 5898 5898 5897 5896 5895 5895 5894 5893 5892 5891 5890 5889 5888 5887 5886 5885
5915 5915 5915 5914 5913 5913 5912 5911 5910 5909 5908 5907 5906 5905 5905 5905 5904 5903 5903 5902 5901 5901 5900 5899 5898 5898 5897 5896 5896 5895 5894 5894 5893 5892 5892 5891 5890 5889 5888 5887 5885 5884 5883
5914 5914 5914 5913 5913 5912 5911 5910 5909 5908 5907 5906 5905 5904 5903 5903 5902 5901 5901 5900 5899 5898 5897 5896 5896 5895 5895 5894 5894 5893 5892 5892 5891 5890 5889 5889 5888 5887 5885 5884 5883 5882 5881
5913 5913 5913 5912 5911 5910 5910 5909 5908 5907 5906 5905 5904 5903 5902 5902 5901 5900 5899 5898 5897 5896 5895 5894 5893 5892 5892 5891 5891 5890 5890 5889 5888 5887 5887 5886 5885 5884 5883 5882 5881 5879 5878
5912 5911 5911 5911 5910 5909 5908 5907 5906 5905 5904 5904 5903 5902 5901 5900 5899 5899 5898 5896 5895 5894 5893 5892 5891 5890 5889 5888 5888 5887 5886 5886 5885 5885 5884 5883 5882 5881 5880 5879 5878 5876 5875
5909 5909 5909 5908 5908 5907 5906 5905 5904 5903 5902 5902 5901 5900 5899 5898 5897 5896 5895 5894 5893 5892 5891 5890 5889 5888 5887 5886 5885 5884 5883 5882 5882 5881 5880 5879 5878 5877 5877 5876 5874 5873 5872
5907 5906 5906 5906 5905 5904 5903 5902 5901 5901 5900 5899 5898 5897 5896 5895 5894 5893 5892 5891 5890 5889 5888 5887 5886 5884 5884 5883 5882 5881 5880 5879 5878 5878 5877 5876 5875 5874 5873 5872 5870 5869 5868
5905 5904 5904 5903 5902 5901 5900 5899 5899 5898 5897 5896 5895 5894 5893 5893 5891 5890 5889 5888 5887 5886 5884 5883 5882 5881 5880 5879 5878 5877 5876 5875 5874 5874 5873 5872 5871 5870 5868 5867 5866 5865 5863
5902 5902 5901 5900 5899 5898 5897 5897 5896 5894 5893 5892 5891 5890 5890 5889 5888 5886 5885 5884 5882 5882 5880 5879 5878 5877 5876 5875 5874 5873 5872 5871 5870 5869 5868 5867 5866 5865 5864 5862 5861 5860 5858
5899 5898 5897 5896 5895 5894 5894 5893 5892 5891 5890 5888 5887 5887 5885 5884 5883 5882 5880 5879 5878 5877 5876 5874 5873 5872 5871 5870 5869 5868 5867 5866 5865 5864 5864 5862 5861 5860 5859 5857 5856 5854 5853
5895 5894 5893 5892 5891 5890 5889 5888 5887 5886 5885 5884 5883 5882 5881 5879 5878 5877 5875 5874 5873 5872 5871 5869 5868 5867 5866 5865 5864 5863 5862 5861 5860 5859 5858 5857 5856 5855 5853 5852 5850 5849 5847
5890 5889 5888 5887 5886 5885 5884 5882 5881 5881 5880 5879 5878 5877 5875 5874 5872 5871 5869 5868 5867 5866 5865 5864 5863 5861 5860 5859 5858 5857 5856 5855 5855 5853 5852 5852 5850 5849 5848 5846 5844 5843 5841
5884 5883 5882 5881 5880 5879 5878 5877 5876 5875 5874 5873 5872 5871 5869 5867 5866 5865 5864 5862 5861 5860 5859 5858 5857 5856 5854 5853 5852 5851 5850 5849 5848 5847 5846 5845 5844 5843 5841 5839 5838 5836 5834
5878 5877 5876 5875 5874 5873 5872 5871 5870 5869 5867 5866 5865 5864 5862 5861 5860 5858 5857 5856 5855 5854 5853 5852 5851 5849 5848 5847 5846 5845 5844 5842 5841 5840 5839 5838 5836 5835 5834 5832 5830 5828 5826
5870 5869 5868 5868 5867 5866 5865 5864 5863 5862 5861 5859 5858 5857 5855 5854 5853 5851 5850 5848 5847 5846 5846 5845 5844 5843 5841 5840 5839 5838 5837 5835 5834 5833 5832 5830 5829 5827 5826 5824 5822 5820 5818
5863 5862 5860 5860 5860 5859 5857 5856 5855 5854 5853 5851 5850 5849 5848 5847 5845 5844 5843 5841 5840 5839 5838 5837 5836 5835 5834 5833 5832 5830 5829 5828 5826 5825 5824 5823 5821 5820 5818 5816 5814 5812 5809
5855 5853 5852 5851 5851 5850 5849 5848 5846 5845 5844 5842 5841 5840 5839 5838 5837 5836 5835 5834 5833 5832 5831 5830 5829 5828 5827 5825 5824 5823 5821 5820 5819 5818 5816 5815 5813 5812 5810 5808 5805 5803 5801
5846 5844 5843 5842 5842 5840 5839 5839 5837 5836 5835 5833 5832 5831 5830 5829 5829 5828 5827 5825 5824 5823 5823 5822 5821 5819 5818 5817 5816 5814 5813 5812 5810 5809 5808 5807 5805 5803 5801 5799 5796 5794 5792
5836 5835 5834 5833 5832 5830 5830 5829 5828 5827 5826 5825 5823 5822 5821 5821 5820 5819 5818 5817 5816 5815 5814 5813 5812 5811 5809 5808 5807 5805 5804 5803 5802 5800 5799 5798 5796 5794 5792 5790 5787 5785 5783
5827 5825 5824 5823 5822 5821 5820 5819 5819 5818 5816 5815 5814 5813 5812 5812 5811 5810 5809 5808 5807 5806 5805 5804 5803 5801 5800 5798 5797 5796 5794 5793 5792 5791 5789 5788 5786 5784 5782 5780 5778 5776 5774
5816 5815 5814 5813 5812 5811 5810 5809 5808 5807 5807 5806 5804 5803 5803 5802 5801 5800 5799 5798 5798 5797 5796 5794 5793 5791 5790 5789 5787 5786 5784 5783 5782 5781 5779 5778 5776 5774 5773 5771 5768 5766 5764